[[{"header":{"parameterUnit":"m.s-1","parameterCategory":1,"la1":30.2991,"la2":30.254,"lo1":-89.0895,"lo2":-89.0444,"dy":0.0017,"dx":0.0017,"nx":28,"ny":28,"refTime":"2024-04-29T03:00:00:Z","depth":0,"parameterNumber":2,"parameterNumberName":"U-component_of_WINDS"},"data":[0,0,0,0,0,0,0,0,0,0,0,0,0,0,0,0,0,0,0,0,0,0,0,0,0,0,0,0,0,0,0,0,0,0,0,0,0,0,0,0,0,0,0,0,0,0,0,0,0,0,0,0,0,0,0,0,0,0,-0.095,-0.0954,0,-0.1327,-0.1331,-0.1335,-0.1602,-0.1604,-0.1606,-0.1608,-0.1994,-0.2002,-0.2011,0,0,0,0,0,0,0,0,0,0,0,0,0,-0.0462,-0.0469,-0.095,-0.0955,-0.0959,-0.1326,-0.1331,-0.1337,-0.1601,-0.1604,-0.1606,-0.1609,-0.1991,-0.2001,-0.2011,0,0,0,0,0,0,0,0,0,0,0,0,0,-0.0739,-0.0472,-0.0949,-0.1136,-0.1156,-0.1325,-0.1332,-0.1338,-0.1601,-0.1604,-0.1607,-0.161,-0.1988,-0.2,-0.2013,-0.2026,0,0,-0.2051,-0.2056,0,0,0,0,0,0,0,0,-0.0723,-0.0757,-0.1104,-0.1123,-0.1146,-0.1421,-0.1301,-0.1569,-0.16,-0.1432,-0.1608,-0.1612,-0.1801,-0.1829,-0.1893,-0.2045,-0.2061,-0.2052,-0.2059,-0.2065,-0.2068,0,0,0,0,0,0,0,-0.0704,-0.0742,-0.1099,-0.1108,-0.1135,-0.1201,-0.1244,-0.1353,-0.1594,-0.1447,-0.1467,-0.1508,-0.1813,-0.188,-0.1904,-0.2067,-0.2052,-0.2063,-0.207,-0.2075,-0.2251,-0.2248,0,0,0,0,0,0,-0.0655,-0.0724,-0.1087,-0.1111,-0.0938,-0.1207,-0.1255,-0.1329,-0.1594,-0.1637,-0.1505,-0.1519,-0.1857,-0.1889,-0.1918,-0.1954,-0.2065,-0.2076,-0.2084,-0.2253,-0.225,-0.2247,0,0,0,0,0,0,-0.0643,-0.0685,-0.1072,-0.0923,-0.0978,-0.1212,-0.1293,-0.1335,-0.1402,-0.1638,-0.1682,-0.1529,-0.1861,-0.1901,-0.1998,-0.197,-0.2082,-0.2093,-0.2257,-0.2252,-0.2248,-0.2022,0,0,0,0,0,0,-0.0628,-0.0679,-0.0686,-0.0921,-0.0984,-0.1144,-0.1292,-0.134,-0.1423,-0.1445,-0.1672,-0.1712,-0.1866,-0.1978,-0.201,-0.199,-0.2103,-0.226,-0.2255,-0.225,-0.2033,-0.201,-0.1991,0,0,0,0,0,-0.061,-0.0608,-0.0685,-0.0728,-0.0999,-0.1142,-0.1179,-0.1356,-0.1419,-0.1429,-0.1581,-0.1705,-0.1967,-0.1985,-0.2024,-0.2007,-0.2263,-0.2256,-0.225,-0.2042,-0.2015,-0.1991,0,0,0,0,0,0,-0.0364,-0.0642,-0.0731,-0.0805,-0.0948,-0.1187,-0.1205,-0.1321,-0.1449,-0.1464,-0.1679,-0.1728,-0.1803,-0.1915,-0.193,-0.2035,-0.2131,-0.2132,-0.1959,-0.1935,-0.1914,-0.1887,-0.2114,0,0,0,0,0,-0.0318,-0.0411,-0.0649,-0.0691,-0.0758,-0.0968,-0.1037,-0.1161,-0.1318,-0.138,-0.1539,-0.1686,-0.1803,-0.1875,-0.1995,-0.2049,-0.2104,-0.2057,-0.2036,-0.2017,-0.2016,-0.2055,-0.2038,-0.2226,-0.2226,-0.2226,0,0,-0.0225,-0.0388,-0.0434,-0.0646,-0.0771,-0.0863,-0.1017,-0.1108,-0.1179,-0.1395,-0.1496,-0.1617,-0.1796,-0.1872,-0.1914,-0.1968,-0.1976,-0.2009,-0.1993,-0.2003,-0.2047,-0.2029,-0.2013,-0.2222,-0.2222,-0.2223,0,0,-0.0103,-0.0234,-0.0285,-0.0407,-0.0594,-0.0734,-0.0745,-0.0967,-0.1055,-0.1161,-0.1324,-0.1412,-0.1607,-0.1729,-0.1816,-0.1737,-0.1857,-0.177,-0.1662,-0.1697,-0.1682,-0.167,-0.1644,-0.1632,-0.1768,-0.1767,-0.1767,0,0.0037,-0.0108,-0.0296,-0.0377,-0.0466,-0.0664,-0.0717,-0.0826,-0.1042,-0.11,-0.1157,-0.1407,-0.1541,-0.1649,-0.163,-0.1693,-0.1714,-0.1746,-0.1669,-0.1659,-0.165,-0.1628,-0.1617,-0.1756,-0.1757,-0.1758,-0.1759,0,0.0072,-0.0026,-0.0044,-0.0248,-0.0338,-0.0404,-0.0602,-0.0671,-0.0786,-0.092,-0.1025,-0.1193,-0.1351,-0.1385,-0.1499,-0.1509,-0.1538,-0.1628,-0.173,-0.1617,-0.16,-0.1593,-0.1739,-0.1743,-0.1747,-0.175,0,0,0.0336,0.0031,0.0027,-0.0068,-0.0289,-0.0369,-0.0443,-0.0597,-0.0653,-0.0795,-0.0865,-0.1025,-0.1111,-0.1209,-0.1338,-0.1368,-0.1298,-0.1458,-0.1465,-0.1423,-0.1321,-0.1253,-0.1239,-0.1378,-0.1377,-0.1376,-0.1307,0,0.0423,0.0278,0.0108,0.0021,-0.0072,-0.0261,-0.0327,-0.0469,-0.0595,-0.0693,-0.0834,-0.0944,-0.1048,-0.1109,-0.1148,-0.1297,-0.128,-0.1305,-0.1446,-0.1449,-0.1397,-0.123,-0.1158,-0.1085,-0.1301,-0.13,-0.1299,0,0.0504,0.0373,0.0277,0.0065,0.0019,-0.0037,-0.0192,-0.0282,-0.0448,-0.0538,-0.0647,-0.0785,-0.0875,-0.0962,-0.1089,-0.1102,-0.1169,-0.1251,-0.1253,-0.1275,-0.1368,-0.1249,-0.1066,-0.1055,-0.129,-0.1291,-0.1292,0,0.0705,0.0504,0.042,0.0345,0.0095,0.006,-0.0045,-0.0214,-0.0296,-0.0431,-0.0486,-0.0629,-0.0708,-0.0817,-0.099,-0.1037,-0.1099,-0.1201,-0.1178,-0.1173,-0.1184,-0.1181,-0.1011,-0.1223,-0.1223,-0.1223,-0.1223,0,0.0819,0.0767,0.0507,0.0455,0.0392,0.0197,0.0139,0.0016,-0.0132,-0.0211,-0.0383,-0.0454,-0.0677,-0.0775,-0.0911,-0.0997,-0.103,-0.1107,-0.1143,-0.1093,-0.1083,-0.1142,-0.1152,-0.1221,-0.1221,-0.1222,-0.1222,0,0.1031,0.0855,0.0751,0.0524,0.0466,0.0429,0.0234,0.0176,0.0041,-0.0057,-0.0092,-0.0304,-0.0428,-0.0611,-0.079,-0.0882,-0.0947,-0.1004,-0.089,-0.0913,-0.088,-0.0881,-0.0743,-0.0736,-0.0947,-0.0945,-0.0943,0,0.1114,0.107,0.0839,0.0774,0.0675,0.0572,0.0488,0.0296,0.0215,0.0024,-0.0011,-0.0148,-0.0268,-0.0457,-0.0628,-0.0766,-0.083,-0.0772,-0.0852,-0.08,-0.0832,-0.0828,-0.0834,-0.0753,-0.075,-0.0747,-0.0745,0,0.1279,0.1195,0.1081,0.0937,0.0843,0.072,0.0589,0.0545,0.0324,0.0242,0.0114,0.0022,-0.0161,-0.0296,-0.0457,-0.0568,-0.0693,-0.0718,-0.072,-0.0671,-0.0604,-0.0642,-0.0841,-0.0721,-0.0723,-0.0725,-0.0726,-0.0727,0.1426,0.1379,0.1209,0.1088,0.097,0.0852,0.0786,0.0644,0.0534,0.0371,0.0264,0.0142,-0.0024,-0.0254,-0.0357,-0.0457,-0.051,-0.0513,-0.0515,-0.0513,-0.0496,-0.0585,-0.0487,-0.0488,-0.0489,-0.049,-0.049,0,0.1581,0.1463,0.1355,0.1177,0.1082,0.0975,0.0824,0.0751,0.0646,0.0503,0.0389,0.0242,0.0111,-0.0069,-0.0214,-0.0259,-0.0321,-0.0291,-0.0291,-0.0315,-0.0439,-0.0423,-0.0239,-0.0239,-0.0239,-0.0239,-0.0239,-0.0239,0.165,0.1563,0.1459,0.1311,0.1192,0.1072,0.0995,0.0885,0.077,0.0613,0.0504,0.0388,0.0229,0.0072,-0.0053,-0.0103,-0.0149,-0.0102,-0.0169,-0.0283,-0.0306,-0.0328,-0.0314,-0.011,-0.0109,-0.0038,-0.0037,-0.0037]},{"header":{"parameterUnit":"m.s-1","parameterCategory":1,"la1":30.2991,"la2":30.254,"lo1":-89.0895,"lo2":-89.0444,"dy":0.0017,"dx":0.0017,"nx":28,"ny":28,"refTime":"2024-04-29T03:00:00:Z","depth":0,"parameterNumber":3,"parameterNumberName":"V-component_of_WINDS"},"data":[0,0,0,0,0,0,0,0,0,0,0,0,0,0,0,0,0,0,0,0,0,0,0,0,0,0,0,0,0,0,0,0,0,0,0,0,0,0,0,0,0,0,0,0,0,0,0,0,0,0,0,0,0,0,0,0,0,0,6.5369,6.5375,0,6.5967,6.5974,6.5981,6.6169,6.6166,6.6163,6.616,6.677,6.6788,6.6807,0,0,0,0,0,0,0,0,0,0,0,0,0,6.4385,6.4402,6.5368,6.5376,6.5383,6.5966,6.5974,6.5983,6.6169,6.6166,6.6162,6.6159,6.6763,6.6786,6.6808,0,0,0,0,0,0,0,0,0,0,0,0,0,6.488,6.4407,6.5367,6.5547,6.5569,6.5965,6.5975,6.5985,6.617,6.6166,6.6161,6.6158,6.6756,6.6784,6.6811,6.707,0,0,6.6898,6.691,0,0,0,0,0,0,0,0,6.4852,6.4916,6.5513,6.5535,6.5561,6.5989,6.5851,6.6349,6.6171,6.5942,6.616,6.6155,6.6513,6.6561,6.6683,6.7099,6.7125,6.69,6.6917,6.693,6.6938,0,0,0,0,0,0,0,6.4817,6.4891,6.5605,6.5521,6.5551,6.5597,6.5663,6.5946,6.6244,6.5961,6.5976,6.6045,6.6525,6.6655,6.6698,6.7134,6.6899,6.6925,6.6942,6.6953,6.7795,6.78,0,0,0,0,0,0,6.4753,6.4862,6.5586,6.5623,6.5189,6.5618,6.5692,6.5856,6.6241,6.6296,6.6048,6.6051,6.6609,6.6665,6.672,6.7051,6.6929,6.6956,6.6972,6.7789,6.7796,6.7802,0,0,0,0,0,0,6.4731,6.4816,6.5562,6.5247,6.5346,6.564,6.5822,6.587,6.6,6.6307,6.636,6.6126,6.6608,6.6681,6.6983,6.7074,6.6969,6.6994,6.7783,6.7791,6.7799,6.771,0,0,0,0,0,0,6.4702,6.4807,6.4909,6.5248,6.5362,6.5815,6.5828,6.5884,6.6048,6.6059,6.6394,6.6445,6.661,6.6939,6.7011,6.7111,6.7016,6.7776,6.7787,6.7796,6.7706,6.7714,6.7721,0,0,0,0,0,6.4666,6.4859,6.4913,6.4999,6.5495,6.582,6.5885,6.6071,6.6055,6.616,6.6357,6.6435,6.7052,6.6969,6.7051,6.7161,6.7771,6.7784,6.7796,6.7703,6.7713,6.7721,0,0,0,0,0,0,6.4521,6.4906,6.4971,6.5279,6.5515,6.5851,6.5988,6.6075,6.632,6.6319,6.6539,6.6614,6.6899,6.7061,6.6961,6.7432,6.7415,6.7444,6.7317,6.7329,6.7336,6.7291,6.704,0,0,0,0,0,6.4525,6.4757,6.5081,6.5322,6.5437,6.5692,6.584,6.5964,6.6217,6.6317,6.6537,6.6779,6.7028,6.7187,6.7433,6.7731,6.7807,6.7847,6.7854,6.7859,6.7881,6.8051,6.8073,6.7842,6.7842,6.7841,0,0,6.4535,6.4775,6.4907,6.5299,6.5496,6.5731,6.5775,6.6021,6.6198,6.6355,6.6654,6.6823,6.7108,6.7409,6.7553,6.7552,6.7962,6.7874,6.7875,6.7896,6.8066,6.8088,6.8107,6.785,6.7848,6.7847,0,0,6.4674,6.4878,6.5102,6.53,6.5599,6.5768,6.5821,6.6145,6.6264,6.6568,6.6691,6.6904,6.7327,6.7526,6.7682,6.7897,6.7978,6.7971,6.8009,6.8173,6.8191,6.8208,6.8286,6.8311,6.7992,6.7992,6.7992,0,6.4649,6.5009,6.5205,6.5447,6.5616,6.577,6.5998,6.618,6.6543,6.6656,6.665,6.7187,6.7389,6.7739,6.7792,6.7913,6.7981,6.7934,6.8173,6.8192,6.8211,6.8287,6.8316,6.7989,6.799,6.799,6.799,0,6.4963,6.5211,6.5356,6.5705,6.589,6.6122,6.6354,6.6517,6.6625,6.6793,6.7101,6.735,6.7649,6.7741,6.7848,6.8108,6.8098,6.813,6.8117,6.8227,6.8303,6.8333,6.7985,6.7986,6.7987,6.7988,0,0,6.5027,6.5483,6.5532,6.5693,6.6036,6.6231,6.6471,6.6765,6.6901,6.7147,6.7354,6.771,6.7742,6.7919,6.805,6.8193,6.8349,6.8209,6.8218,6.8226,6.865,6.8624,6.8655,6.8404,6.8411,6.8416,6.8627,0,6.521,6.5647,6.5831,6.6182,6.6414,6.6565,6.6774,6.7006,6.717,6.739,6.7571,6.7821,6.7844,6.7952,6.8101,6.8297,6.8437,6.8285,6.8598,6.8607,6.8522,6.8694,6.8668,6.8855,6.8657,6.8662,6.8666,0,6.5482,6.5731,6.6105,6.6421,6.6525,6.671,6.6995,6.7204,6.747,6.758,6.7778,6.7902,6.8159,6.8129,6.8486,6.8379,6.8518,6.8634,6.8646,6.8683,6.8643,6.8735,6.8919,6.8946,6.8714,6.8711,6.8707,0,6.549,6.5919,6.62,6.6332,6.6708,6.6834,6.6996,6.7259,6.7424,6.7674,6.7783,6.8058,6.8208,6.8418,6.8613,6.8572,6.8952,6.8938,6.905,6.9045,6.9123,6.9115,6.9331,6.9211,6.9211,6.921,6.921,0,6.5676,6.5899,6.6209,6.6381,6.6636,6.6845,6.7092,6.7264,6.7497,6.7705,6.7852,6.8043,6.8289,6.8512,6.8665,6.8938,6.9005,6.91,6.9138,6.9088,6.9075,6.9182,6.9174,6.9218,6.9216,6.9215,6.9213,0,6.5728,6.5945,6.626,6.659,6.6679,6.6852,6.7134,6.7307,6.7478,6.774,6.7813,6.8082,6.8353,6.8568,6.892,6.9023,6.931,6.9353,6.9221,6.9241,6.9341,6.9328,6.9633,6.9684,6.9528,6.9529,6.953,0,6.5832,6.6008,6.6357,6.6508,6.6669,6.6909,6.708,6.7293,6.7464,6.7782,6.7916,6.8197,6.8434,6.8858,6.9085,6.9355,6.9405,6.9494,6.9447,6.9391,6.9408,6.9395,6.9414,6.9498,6.9499,6.9499,6.95,0,6.5993,6.6092,6.6333,6.6612,6.6811,6.7041,6.7273,6.7388,6.7644,6.7829,6.8108,6.8291,6.8652,6.8929,6.9224,6.939,6.9488,6.9513,6.9553,6.9503,6.9419,6.9467,6.9235,6.9505,6.9504,6.9504,6.9504,6.9503,6.6076,6.624,6.6512,6.6775,6.6973,6.7187,6.7366,6.7561,6.7798,6.8109,6.8221,6.8507,6.8771,6.9177,6.9345,6.9572,6.958,6.9637,6.9653,6.9664,6.9658,6.9383,6.9626,6.9627,6.9627,6.9627,6.9627,0,6.6246,6.6428,6.6669,6.699,6.7197,6.7273,6.7535,6.7703,6.7954,6.8192,6.8422,6.8743,6.9013,6.9261,6.9543,6.9677,6.9729,6.9744,6.9736,6.9773,6.9635,6.9572,6.9697,6.9697,6.9697,6.9697,6.9697,6.9697,6.6358,6.6639,6.677,6.7151,6.7333,6.7616,6.7759,6.7958,6.8149,6.8501,6.8727,6.8888,6.9131,6.9432,6.9683,6.9749,6.9846,6.9849,6.9926,6.9792,6.9783,6.9773,6.9715,6.9868,6.9868,7.0046,7.0047,7.0048]}]]